FRS130N EDEL-EDDE

Flight info

Callsign FRS130N
Flight time 1h 19m
Altitude 3500
Route VFR
Aircraft C172/L-V/N

Departure

Time 2026-05-04 18:26
Airport Langenlonsheim Airfield (EDEL)

Arrival

Time 2026-05-04 19:45
Airport Erfurt-Weimar Airport (EDDE)
Time Latitude Longitude Altitude Speed Heading
2026-05-04 18:26 50.02467 8.00541 2995 ft 92 kts 21°
2026-05-04 18:26 50.03066 8.00962 3040 ft 96 kts 21°
2026-05-04 18:27 50.03692 8.01409 3032 ft 102 kts 23°
2026-05-04 18:27 50.04340 8.01882 3029 ft 104 kts 23°
2026-05-04 18:27 50.05002 8.02369 3025 ft 104 kts 22°
2026-05-04 18:27 50.05664 8.02834 3028 ft 105 kts 21°
2026-05-04 18:28 50.06328 8.03298 3027 ft 105 kts 21°
2026-05-04 18:28 50.06996 8.03767 3024 ft 105 kts 21°
2026-05-04 18:28 50.07658 8.04233 3028 ft 105 kts 21°
2026-05-04 18:28 50.08326 8.04705 3032 ft 105 kts 21°
2026-05-04 18:29 50.08997 8.05182 3032 ft 106 kts 21°
2026-05-04 18:29 50.09670 8.05661 3033 ft 107 kts 21°
2026-05-04 18:29 50.10348 8.06145 3030 ft 107 kts 21°
2026-05-04 18:29 50.11033 8.06633 3027 ft 107 kts 21°
2026-05-04 18:30 50.12356 8.07571 3103 ft 101 kts 20°
2026-05-04 18:30 50.12995 8.08007 3176 ft 99 kts 20°
2026-05-04 18:30 50.13617 8.08432 3247 ft 96 kts 19°
2026-05-04 18:31 50.14223 8.08844 3315 ft 94 kts 18°
2026-05-04 18:31 50.14822 8.09251 3390 ft 93 kts 19°
2026-05-04 18:31 50.15416 8.09656 3465 ft 92 kts 19°
2026-05-04 18:31 50.15998 8.10053 3537 ft 91 kts 19°
2026-05-04 18:32 50.16609 8.10382 3553 ft 95 kts 14°
2026-05-04 18:32 50.17255 8.10709 3551 ft 100 kts 15°
2026-05-04 18:32 50.17928 8.11074 3551 ft 103 kts 17°
2026-05-04 18:32 50.18609 8.11456 3551 ft 105 kts 17°
2026-05-04 18:33 50.19297 8.11846 3550 ft 106 kts 17°
2026-05-04 18:33 50.19996 8.12248 3549 ft 107 kts 18°
2026-05-04 18:33 50.20704 8.12664 3546 ft 108 kts 17°
2026-05-04 18:33 50.21405 8.13065 3547 ft 108 kts 17°
2026-05-04 18:34 50.22108 8.13468 3550 ft 108 kts 17°
2026-05-04 18:34 50.22823 8.13882 3550 ft 109 kts 17°
2026-05-04 18:34 50.23507 8.14376 3547 ft 111 kts 36°
2026-05-04 18:34 50.23973 8.15332 3551 ft 112 kts 56°
2026-05-04 18:35 50.24369 8.16380 3550 ft 112 kts 57°
2026-05-04 18:35 50.24763 8.17434 3550 ft 110 kts 57°
2026-05-04 18:35 50.25149 8.18463 3551 ft 109 kts 57°
2026-05-04 18:35 50.25532 8.19474 3549 ft 108 kts 57°
2026-05-04 18:36 50.25914 8.20486 3550 ft 108 kts 57°
2026-05-04 18:36 50.26296 8.21501 3550 ft 108 kts 57°
2026-05-04 18:36 50.26677 8.22508 3548 ft 108 kts 57°
2026-05-04 18:36 50.27121 8.23450 3547 ft 107 kts 48°
2026-05-04 18:37 50.27596 8.24356 3549 ft 107 kts 48°
2026-05-04 18:37 50.28072 8.25257 3549 ft 108 kts 48°
2026-05-04 18:37 50.28550 8.26164 3550 ft 108 kts 47°
2026-05-04 18:37 50.29034 8.27055 3549 ft 108 kts 44°
2026-05-04 18:38 50.29549 8.27924 3551 ft 108 kts 44°
2026-05-04 18:38 50.30049 8.28810 3552 ft 108 kts 46°
2026-05-04 18:38 50.30528 8.29712 3551 ft 108 kts 48°
2026-05-04 18:38 50.30997 8.30639 3551 ft 108 kts 50°
2026-05-04 18:39 50.31452 8.31577 3551 ft 108 kts 50°
2026-05-04 18:39 50.31895 8.32521 3552 ft 108 kts 51°
2026-05-04 18:39 50.32330 8.33476 3552 ft 108 kts 52°
2026-05-04 18:39 50.32723 8.34479 3547 ft 108 kts 53°
2026-05-04 18:40 50.33149 8.35444 3550 ft 108 kts 52°
2026-05-04 18:40 50.33572 8.36417 3552 ft 108 kts 53°
2026-05-04 18:40 50.33993 8.37401 3550 ft 109 kts 53°
2026-05-04 18:40 50.34413 8.38401 3554 ft 109 kts 54°
2026-05-04 18:41 50.34827 8.39399 3555 ft 110 kts 54°
2026-05-04 18:41 50.35235 8.40399 3553 ft 110 kts 55°
2026-05-04 18:41 50.35648 8.41422 3555 ft 110 kts 55°
2026-05-04 18:41 50.36049 8.42423 3557 ft 110 kts 55°
2026-05-04 18:42 50.36454 8.43441 3556 ft 110 kts 55°
2026-05-04 18:42 50.36857 8.44463 3557 ft 109 kts 55°
2026-05-04 18:42 50.37254 8.45471 3557 ft 109 kts 56°
2026-05-04 18:42 50.37653 8.46493 3557 ft 108 kts 56°
2026-05-04 18:43 50.38043 8.47494 3557 ft 108 kts 56°
2026-05-04 18:43 50.38435 8.48500 3556 ft 108 kts 56°
2026-05-04 18:43 50.38823 8.49498 3558 ft 108 kts 56°
2026-05-04 18:43 50.39217 8.50513 3558 ft 108 kts 56°
2026-05-04 18:44 50.39608 8.51522 3556 ft 108 kts 56°
2026-05-04 18:44 50.39867 8.52193 3556 ft 108 kts 56°
2026-05-04 18:44 50.40388 8.53543 3556 ft 109 kts 56°
2026-05-04 18:44 50.40776 8.54551 3555 ft 109 kts 56°
2026-05-04 18:45 50.41169 8.55574 3555 ft 109 kts 56°
2026-05-04 18:45 50.41556 8.56585 3555 ft 108 kts 56°
2026-05-04 18:45 50.41946 8.57605 3554 ft 108 kts 56°
2026-05-04 18:45 50.42328 8.58604 3553 ft 107 kts 56°
2026-05-04 18:46 50.42711 8.59608 3551 ft 107 kts 56°
2026-05-04 18:46 50.43095 8.60613 3554 ft 106 kts 56°
2026-05-04 18:46 50.43475 8.61605 3553 ft 107 kts 55°
2026-05-04 18:46 50.43856 8.62604 3554 ft 107 kts 56°
2026-05-04 18:47 50.44242 8.63614 3552 ft 107 kts 56°
2026-05-04 18:47 50.44626 8.64621 3552 ft 107 kts 56°
2026-05-04 18:47 50.45013 8.65636 3553 ft 107 kts 56°
2026-05-04 18:47 50.45399 8.66647 3553 ft 108 kts 57°
2026-05-04 18:48 50.45781 8.67652 3552 ft 108 kts 56°
2026-05-04 18:48 50.46167 8.68666 3551 ft 108 kts 56°
2026-05-04 18:48 50.46507 8.69711 3549 ft 108 kts 63°
2026-05-04 18:48 50.46809 8.70797 3548 ft 108 kts 64°
2026-05-04 18:49 50.47128 8.71871 3548 ft 108 kts 63°
2026-05-04 18:49 50.47391 8.72979 3550 ft 108 kts 69°
2026-05-04 18:49 50.47626 8.74097 3550 ft 108 kts 69°
2026-05-04 18:49 50.47852 8.75221 3550 ft 108 kts 70°
2026-05-04 18:50 50.48067 8.76334 3550 ft 107 kts 71°
2026-05-04 18:50 50.48279 8.77460 3550 ft 108 kts 71°
2026-05-04 18:50 50.48487 8.78594 3550 ft 108 kts 71°
2026-05-04 18:50 50.48692 8.79737 3550 ft 109 kts 72°
2026-05-04 18:51 50.48893 8.80881 3550 ft 109 kts 72°
2026-05-04 18:51 50.49091 8.82034 3549 ft 109 kts 72°
2026-05-04 18:51 50.49287 8.83195 3549 ft 109 kts 72°
2026-05-04 18:51 50.49477 8.84336 3548 ft 109 kts 72°
2026-05-04 18:52 50.49668 8.85492 3550 ft 109 kts 73°
2026-05-04 18:52 50.49856 8.86640 3552 ft 108 kts 72°
2026-05-04 18:52 50.50041 8.87784 3554 ft 108 kts 73°
2026-05-04 18:52 50.50225 8.88931 3555 ft 108 kts 73°
2026-05-04 18:53 50.50407 8.90076 3557 ft 108 kts 73°
2026-05-04 18:53 50.50587 8.91209 3558 ft 108 kts 73°
2026-05-04 18:53 50.50769 8.92358 3558 ft 108 kts 74°
2026-05-04 18:53 50.50949 8.93501 3557 ft 108 kts 73°
2026-05-04 18:54 50.51127 8.94634 3558 ft 108 kts 74°
2026-05-04 18:54 50.51306 8.95780 3558 ft 108 kts 73°
2026-05-04 18:54 50.51487 8.96928 3558 ft 108 kts 73°
2026-05-04 18:54 50.51668 8.98081 3559 ft 108 kts 73°
2026-05-04 18:55 50.51849 8.99232 3559 ft 109 kts 73°
2026-05-04 18:55 50.52211 9.01552 3558 ft 109 kts 73°
2026-05-04 18:55 50.52391 9.02719 3557 ft 109 kts 73°
2026-05-04 18:56 50.52569 9.03873 3557 ft 109 kts 73°
2026-05-04 18:56 50.52747 9.05033 3557 ft 109 kts 73°
2026-05-04 18:56 50.52921 9.06186 3557 ft 109 kts 74°
2026-05-04 18:56 50.53091 9.07332 3556 ft 108 kts 74°
2026-05-04 18:57 50.53259 9.08488 3555 ft 108 kts 74°
2026-05-04 18:57 50.53426 9.09649 3556 ft 108 kts 75°
2026-05-04 18:57 50.53592 9.10807 3557 ft 108 kts 74°
2026-05-04 18:57 50.53758 9.11962 3561 ft 109 kts 75°
2026-05-04 18:58 50.53925 9.13127 3559 ft 109 kts 75°
2026-05-04 18:58 50.54089 9.14289 3555 ft 109 kts 75°
2026-05-04 18:58 50.54251 9.15446 3555 ft 109 kts 74°
2026-05-04 18:58 50.54413 9.16617 3557 ft 110 kts 75°
2026-05-04 18:59 50.54576 9.17804 3557 ft 110 kts 74°
2026-05-04 18:59 50.54733 9.18967 3557 ft 110 kts 75°
2026-05-04 18:59 50.54887 9.20147 3563 ft 110 kts 75°
2026-05-04 18:59 50.55037 9.21327 3562 ft 110 kts 76°
2026-05-04 19:00 50.55183 9.22515 3564 ft 110 kts 76°
2026-05-04 19:00 50.55328 9.23701 3557 ft 110 kts 75°
2026-05-04 19:00 50.55487 9.24876 3552 ft 110 kts 75°
2026-05-04 19:00 50.55642 9.26047 3550 ft 109 kts 76°
2026-05-04 19:01 50.55792 9.27207 3550 ft 109 kts 76°
2026-05-04 19:01 50.55938 9.28371 3546 ft 109 kts 76°
2026-05-04 19:01 50.56084 9.29546 3545 ft 109 kts 76°
2026-05-04 19:01 50.56227 9.30714 3547 ft 108 kts 76°
2026-05-04 19:02 50.56372 9.31872 3550 ft 109 kts 76°
2026-05-04 19:02 50.56519 9.33038 3550 ft 109 kts 75°
2026-05-04 19:02 50.56668 9.34217 3549 ft 109 kts 75°
2026-05-04 19:02 50.56814 9.35383 3549 ft 109 kts 76°
2026-05-04 19:03 50.56962 9.36569 3550 ft 109 kts 76°
2026-05-04 19:03 50.57105 9.37740 3549 ft 109 kts 76°
2026-05-04 19:03 50.57252 9.38906 3545 ft 108 kts 70°
2026-05-04 19:03 50.57462 9.40044 3549 ft 108 kts 71°
2026-05-04 19:04 50.57667 9.41176 3548 ft 108 kts 71°
2026-05-04 19:04 50.57869 9.42310 3549 ft 108 kts 71°
2026-05-04 19:04 50.58070 9.43448 3548 ft 107 kts 71°
2026-05-04 19:04 50.58270 9.44584 3551 ft 107 kts 71°
2026-05-04 19:05 50.58467 9.45717 3551 ft 108 kts 71°
2026-05-04 19:05 50.58665 9.46861 3552 ft 108 kts 71°
2026-05-04 19:05 50.58860 9.47999 3549 ft 108 kts 71°
2026-05-04 19:05 50.59055 9.49141 3544 ft 108 kts 71°
2026-05-04 19:06 50.59143 9.50321 3542 ft 107 kts 78°
2026-05-04 19:06 50.59257 9.51475 3548 ft 107 kts 77°
2026-05-04 19:06 50.59376 9.52640 3548 ft 108 kts 77°
2026-05-04 19:06 50.59499 9.53824 3549 ft 108 kts 77°
2026-05-04 19:07 50.59621 9.54988 3550 ft 108 kts 77°
2026-05-04 19:07 50.59744 9.56164 3550 ft 108 kts 77°
2026-05-04 19:07 50.59869 9.57330 3547 ft 108 kts 77°
2026-05-04 19:07 50.59996 9.58494 3545 ft 108 kts 77°
2026-05-04 19:08 50.60124 9.59655 3541 ft 107 kts 77°
2026-05-04 19:08 50.60278 9.60781 3541 ft 105 kts 68°
2026-05-04 19:08 50.60601 9.61815 3545 ft 104 kts 57°
2026-05-04 19:08 50.60962 9.62803 3541 ft 104 kts 56°
2026-05-04 19:09 50.61326 9.63787 3541 ft 104 kts 55°
2026-05-04 19:09 50.61687 9.64764 3540 ft 104 kts 55°
2026-05-04 19:09 50.62038 9.65758 3546 ft 104 kts 60°
2026-05-04 19:09 50.62363 9.66789 3545 ft 105 kts 60°
2026-05-04 19:10 50.62687 9.67814 3546 ft 104 kts 59°
2026-05-04 19:10 50.63016 9.68842 3548 ft 104 kts 60°
2026-05-04 19:10 50.63347 9.69861 3548 ft 105 kts 59°
2026-05-04 19:10 50.63684 9.70876 3548 ft 105 kts 59°
2026-05-04 19:11 50.64024 9.71886 3552 ft 105 kts 59°
2026-05-04 19:11 50.64373 9.72911 3548 ft 105 kts 58°
2026-05-04 19:11 50.64720 9.73916 3547 ft 105 kts 58°
2026-05-04 19:11 50.65073 9.74929 3549 ft 104 kts 58°
2026-05-04 19:12 50.65420 9.75919 3551 ft 104 kts 57°
2026-05-04 19:12 50.66135 9.77937 3551 ft 105 kts 57°
2026-05-04 19:12 50.66492 9.78939 3547 ft 105 kts 57°
2026-05-04 19:13 50.66852 9.79941 3550 ft 105 kts 57°
2026-05-04 19:13 50.67209 9.80934 3549 ft 105 kts 56°
2026-05-04 19:13 50.67569 9.81933 3551 ft 105 kts 56°
2026-05-04 19:13 50.67931 9.82931 3555 ft 105 kts 57°
2026-05-04 19:14 50.68294 9.83936 3554 ft 105 kts 57°
2026-05-04 19:14 50.68653 9.84931 3555 ft 105 kts 57°
2026-05-04 19:14 50.69015 9.85931 3558 ft 105 kts 56°
2026-05-04 19:14 50.69384 9.86933 3558 ft 105 kts 55°
2026-05-04 19:15 50.69765 9.87918 3552 ft 105 kts 54°
2026-05-04 19:15 50.70147 9.88906 3551 ft 104 kts 55°
2026-05-04 19:15 50.70523 9.89882 3550 ft 104 kts 54°
2026-05-04 19:15 50.70897 9.90860 3554 ft 104 kts 55°
2026-05-04 19:16 50.71270 9.91840 3551 ft 105 kts 56°
2026-05-04 19:16 50.71641 9.92826 3550 ft 105 kts 56°
2026-05-04 19:16 50.72013 9.93817 3549 ft 105 kts 56°
2026-05-04 19:16 50.72383 9.94805 3548 ft 105 kts 56°
2026-05-04 19:17 50.72750 9.95792 3548 ft 105 kts 55°
2026-05-04 19:17 50.73124 9.96800 3551 ft 105 kts 56°
2026-05-04 19:17 50.73490 9.97792 3551 ft 105 kts 56°
2026-05-04 19:17 50.73858 9.98791 3553 ft 105 kts 55°
2026-05-04 19:18 50.74229 9.99803 3555 ft 106 kts 56°
2026-05-04 19:18 50.74596 10.00803 3551 ft 106 kts 56°
2026-05-04 19:18 50.74962 10.01805 3553 ft 106 kts 56°
2026-05-04 19:18 50.75335 10.02824 3554 ft 106 kts 57°
2026-05-04 19:19 50.75703 10.03834 3551 ft 106 kts 56°
2026-05-04 19:19 50.76069 10.04840 3549 ft 106 kts 56°
2026-05-04 19:19 50.76436 10.05833 3548 ft 104 kts 52°
2026-05-04 19:19 50.76869 10.06763 3552 ft 104 kts 49°
2026-05-04 19:20 50.77296 10.07680 3554 ft 105 kts 50°
2026-05-04 19:20 50.77721 10.08619 3552 ft 105 kts 51°
2026-05-04 19:20 50.78139 10.09569 3554 ft 105 kts 51°
2026-05-04 19:20 50.78549 10.10524 3555 ft 105 kts 52°
2026-05-04 19:21 50.78950 10.11476 3553 ft 104 kts 53°
2026-05-04 19:21 50.79346 10.12430 3549 ft 104 kts 53°
2026-05-04 19:21 50.79740 10.13393 3546 ft 104 kts 53°
2026-05-04 19:21 50.80132 10.14357 3548 ft 104 kts 53°
2026-05-04 19:22 50.80523 10.15329 3551 ft 105 kts 54°
2026-05-04 19:22 50.80908 10.16301 3549 ft 105 kts 54°
2026-05-04 19:22 50.81298 10.17293 3549 ft 105 kts 54°
2026-05-04 19:22 50.81681 10.18273 3548 ft 105 kts 55°
2026-05-04 19:23 50.82064 10.19261 3548 ft 105 kts 54°
2026-05-04 19:23 50.82445 10.20249 3548 ft 105 kts 54°
2026-05-04 19:23 50.82827 10.21241 3548 ft 105 kts 54°
2026-05-04 19:23 50.83206 10.22232 3546 ft 105 kts 54°
2026-05-04 19:24 50.83579 10.23208 3545 ft 104 kts 54°
2026-05-04 19:24 50.83953 10.24189 3548 ft 104 kts 54°
2026-05-04 19:24 50.84326 10.25170 3549 ft 104 kts 54°
2026-05-04 19:24 50.84703 10.26164 3549 ft 104 kts 54°
2026-05-04 19:25 50.85072 10.27137 3549 ft 104 kts 55°
2026-05-04 19:25 50.85443 10.28118 3550 ft 104 kts 55°
2026-05-04 19:25 50.85819 10.29112 3552 ft 104 kts 54°
2026-05-04 19:25 50.86188 10.30087 3555 ft 104 kts 55°
2026-05-04 19:26 50.86561 10.31075 3557 ft 105 kts 55°
2026-05-04 19:26 50.86935 10.32068 3550 ft 105 kts 55°
2026-05-04 19:26 50.87306 10.33057 3553 ft 104 kts 55°
2026-05-04 19:26 50.87676 10.34041 3551 ft 103 kts 54°
2026-05-04 19:27 50.88042 10.35017 3554 ft 104 kts 55°
2026-05-04 19:27 50.88409 10.35996 3556 ft 104 kts 55°
2026-05-04 19:27 50.88784 10.36997 3552 ft 105 kts 55°
2026-05-04 19:27 50.89153 10.37984 3543 ft 104 kts 55°
2026-05-04 19:28 50.89523 10.38975 3539 ft 103 kts 55°
2026-05-04 19:28 50.89885 10.39942 3546 ft 103 kts 55°
2026-05-04 19:28 50.90221 10.40963 3545 ft 106 kts 70°
2026-05-04 19:28 50.90229 10.42141 3544 ft 109 kts 93°
2026-05-04 19:29 50.90138 10.43337 3543 ft 108 kts 94°
2026-05-04 19:29 50.90076 10.44496 3540 ft 105 kts 90°
2026-05-04 19:29 50.90031 10.45631 3543 ft 102 kts 89°
2026-05-04 19:29 50.90004 10.46750 3535 ft 102 kts 85°
2026-05-04 19:30 50.90015 10.47843 3571 ft 97 kts 86°
2026-05-04 19:30 50.90035 10.48891 3628 ft 93 kts 79°
2026-05-04 19:30 50.90215 10.49876 3618 ft 95 kts 61°
2026-05-04 19:30 50.90518 10.50864 3572 ft 104 kts 61°
2026-05-04 19:31 50.90791 10.51958 3558 ft 107 kts 73°
2026-05-04 19:31 50.90909 10.53125 3579 ft 107 kts 80°
2026-05-04 19:31 50.90997 10.54293 3578 ft 108 kts 83°
2026-05-04 19:31 50.90995 10.55501 3570 ft 110 kts 94°
2026-05-04 19:32 50.90873 10.56700 3565 ft 111 kts 99°
2026-05-04 19:32 50.90731 10.57898 3559 ft 112 kts 98°
2026-05-04 19:32 50.90598 10.59117 3549 ft 112 kts 98°
2026-05-04 19:32 50.90453 10.60344 3517 ft 114 kts 100°
2026-05-04 19:33 50.90290 10.61577 3498 ft 114 kts 98°
2026-05-04 19:33 50.90165 10.62800 3502 ft 112 kts 96°
2026-05-04 19:33 50.90042 10.64029 3503 ft 111 kts 97°
2026-05-04 19:33 50.89915 10.65230 3485 ft 112 kts 98°
2026-05-04 19:34 50.89788 10.66451 3479 ft 110 kts 97°
2026-05-04 19:34 50.89675 10.67663 3464 ft 111 kts 98°
2026-05-04 19:34 50.89525 10.68867 3448 ft 112 kts 101°
2026-05-04 19:34 50.89359 10.70096 3432 ft 113 kts 100°
2026-05-04 19:35 50.89217 10.71286 3465 ft 110 kts 100°
2026-05-04 19:35 50.89009 10.72476 3440 ft 113 kts 108°
2026-05-04 19:35 50.88701 10.73624 3396 ft 116 kts 114°
2026-05-04 19:35 50.88391 10.74790 3391 ft 115 kts 109°
2026-05-04 19:36 50.88143 10.75982 3406 ft 113 kts 107°
2026-05-04 19:36 50.87916 10.77174 3393 ft 113 kts 104°
2026-05-04 19:36 50.87725 10.78384 3371 ft 114 kts 98°
2026-05-04 19:36 50.87810 10.79593 3330 ft 111 kts 65°
2026-05-04 19:37 50.88297 10.80526 3289 ft 108 kts 38°
2026-05-04 19:37 50.88816 10.81367 3347 ft 105 kts 50°
2026-05-04 19:37 50.89138 10.82376 3407 ft 107 kts 71°
2026-05-04 19:37 50.89218 10.83585 3246 ft 114 kts 90°
2026-05-04 19:38 50.89159 10.84852 3073 ft 115 kts 92°
2026-05-04 19:38 50.89135 10.86108 2934 ft 113 kts 89°
2026-05-04 19:38 50.89148 10.87345 2768 ft 112 kts 89°
2026-05-04 19:38 50.89143 10.88569 2608 ft 110 kts 91°
2026-05-04 19:39 50.89149 10.89795 2436 ft 111 kts 90°
2026-05-04 19:39 50.89149 10.91000 2311 ft 108 kts 93°
2026-05-04 19:39 50.89108 10.92173 2206 ft 106 kts 96°
2026-05-04 19:39 50.89086 10.93322 2122 ft 100 kts 94°
2026-05-04 19:40 50.89082 10.94386 2079 ft 96 kts 87°
2026-05-04 19:40 50.89320 10.95371 1980 ft 96 kts 51°
2026-05-04 19:40 50.89846 10.95893 1953 ft 85 kts 13°
2026-05-04 19:40 50.90408 10.96093 1955 ft 81 kts
2026-05-04 19:41 50.90961 10.96228 1953 ft 78 kts
2026-05-04 19:41 50.91473 10.96309 1972 ft 70 kts 357°
2026-05-04 19:41 50.91952 10.96377 1949 ft 70 kts 355°
2026-05-04 19:41 50.92453 10.96478 1909 ft 74 kts
2026-05-04 19:42 50.92946 10.96724 1905 ft 74 kts 21°
2026-05-04 19:42 50.93407 10.97074 1912 ft 73 kts 24°
2026-05-04 19:42 50.93844 10.97556 1842 ft 79 kts 36°
2026-05-04 19:42 50.94305 10.98092 1761 ft 83 kts 31°
2026-05-04 19:43 50.94777 10.98580 1717 ft 79 kts 30°
2026-05-04 19:43 50.95246 10.99002 1654 ft 76 kts 26°
2026-05-04 19:43 50.95726 10.99304 1626 ft 70 kts 15°
2026-05-04 19:43 50.96162 10.99573 1589 ft 65 kts 12°
2026-05-04 19:44 50.96603 10.99783 1479 ft 67 kts 13°
2026-05-04 19:44 50.97023 10.99930 1413 ft 63 kts
2026-05-04 19:44 50.97468 10.99994 1362 ft 64 kts 356°
2026-05-04 19:44 50.97758 10.99690 1292 ft 51 kts 264°
2026-05-04 19:45 50.97726 10.99117 1280 ft 51 kts 266°
2026-05-04 19:45 50.97773 10.98543 1227 ft 51 kts 270°
2026-05-04 19:45 50.97811 10.97990 1138 ft 51 kts 272°
2026-05-04 19:45 50.97855 10.97437 1055 ft 49 kts 270°
2026-05-04 19:46 50.97889 10.96970 1039 ft 38 kts 270°
2026-05-04 19:46 50.97919 10.96559 1039 ft 37 kts 275°
2026-05-04 19:46 50.97954 10.96146 1039 ft 39 kts 277°
2026-05-04 19:46 50.97988 10.95707 1039 ft 41 kts 277°
2026-05-04 19:47 50.97997 10.95403 1039 ft 20 kts 228°
2026-05-04 19:47 50.97900 10.95363 1039 ft 7 kts 186°
2026-05-04 19:47 50.97872 10.95358 1039 ft 3 kts 188°
2026-05-04 19:47 50.97844 10.95353 1039 ft 6 kts 183°
2026-05-04 19:48 50.97798 10.95434 1039 ft 16 kts 100°
2026-05-04 19:48 50.97778 10.95642 1039 ft 20 kts 96°
2026-05-04 19:48 50.97762 10.95867 1039 ft 17 kts 96°
2026-05-04 19:48 50.97747 10.96048 1039 ft 16 kts 97°
2026-05-04 19:49 50.97734 10.96209 1039 ft 14 kts 99°
2026-05-04 19:49 50.97722 10.96346 1039 ft 14 kts 88°
2026-05-04 19:49 50.97687 10.96436 1039 ft 9 kts 176°
2026-05-04 19:49 50.97613 10.96440 1039 ft 10 kts 173°
2026-05-04 19:50 50.97572 10.96428 1039 ft 3 kts 271°
2026-05-04 19:50 50.97573 10.96421 1039 ft 0 kts 278°